Tracking 31030 objects as of 15-Jul-2025
HD Live streaming from Space Station
objects crossing your sky now

STARLINK-11566

Track STARLINK-11566 now!
10-day predictions
STARLINK-11566 is classified as:


NORAD ID: 62914
Int'l Code: 2025-027H
Perigee: 362.7 km
Apogee: 364.2 km
Inclination: 43.0 °
Period: 91.7 minutes
Semi major axis: 6734 km
RCS: Unknown
Launch date: February 8, 2025
Source: United States (US)
Launch site: AIR FORCE EASTERN TEST RANGE (AFETR)
Your satellite tracking list
Your tracking list is empty




NASA's NSSDC Master Catalog

Two Line Element Set (TLE):
1 62914U 25027H   25196.10760587  .00196793  00000-0  14978-2 0  9991
2 62914  42.9995 339.9992 0001116 309.1066  50.9703 15.70892819 25810
Source of the keplerian elements: AFSPC